Key West, FL

5:21 PM EST on February 07, 2016 (GMT -0500)
Key West International

Weather History for KEYW - December, 2012

Change the Weather History Date:

Saturday, December 29, 2012

  Actual Average Record
Temperature  
Mean Temperature 75 °F 70 °F  
Max Temperature 79 °F 75 °F 84 °F (2015)
Min Temperature 70 °F 65 °F 44 °F (1894)
Degree Days  
Heating Degree Days 0 1  
Month to date heating degree days 4 13  
Since 1 July heating degree days 4 14  
Cooling Degree Days 10 6  
Month to date cooling degree days 265 206  
Year to date cooling degree days 4819 4739  
Growing Degree Days 25 (Base 50)    
Moisture  
Dew Point 71 °F    
Average Humidity 87    
Maximum Humidity 94    
Minimum Humidity 79    
Precipitation  
Precipitation 0.01 in 0.06 in 2.38 in (1939)
Month to date precipitation 0.67 2.10  
Year to date precipitation 47.00 39.71  
Snow  
Snow 0.00 in - - ()
Month to date snowfall 0.0  
Since 1 July snowfall 0.0  
Snow Depth 0.00 in    
Sea Level Pressure  
Sea Level Pressure 30.03 in    
Wind  
Wind Speed 10 mph (SW)    
Max Wind Speed 21 mph    
Max Gust Speed 29 mph    
Visibility 10 miles    
Events Rain    
T = Trace of Precipitation, MM = Missing Value Source: NWS Daily Summary

Daily Weather History Graph

Daily Weather History Graph

Search for Another Location

Airport or City:

Trip Planner

Search our weather history database for the weather conditions in past years. The results will help you decide how hot, cold, wet, or windy it might be!

Date:

Astronomy

Dec. 29, 2012 Rise Set
Actual Time 7:10 AM EST 5:48 PM EST
Civil Twilight 6:45 AM EST 6:13 PM EST
Nautical Twilight 6:17 AM EST 6:41 PM EST
Astronomical Twilight 5:49 AM EST 7:09 PM EST
Moon 7:09 PM EST (12/29) 7:51 AM EST (12/29)
Length of Visible Light 11h 27m
Length of Day
10h 38m
Full, 98% of the Moon is Illuminated
Dec 29
Full
Jan 4
Last Quarter
Jan 11
New
Jan 18
First Quarter
Jan 26
Full

Hourly Weather History & Observations

Time (EST) Temp. Dew Point Humidity Pressure Visibility Wind Dir Wind Speed Gust Speed Precip Events Conditions
12:06 AM 75.2 °F 73.4 °F 94% 30.00 in 10.0 mi SSE 9.2 mph - N/A   Overcast
12:17 AM 75.2 °F 73.4 °F 94% 30.00 in 10.0 mi SSE 9.2 mph - N/A   Overcast
12:53 AM 75.9 °F 73.0 °F 91% 29.99 in 10.0 mi SSE 6.9 mph - N/A   Scattered Clouds
1:53 AM 75.9 °F 73.0 °F 91% 29.97 in 10.0 mi South 8.1 mph - N/A   Partly Cloudy
2:53 AM 75.9 °F 73.0 °F 91% 29.96 in 10.0 mi South 10.4 mph - N/A   Scattered Clouds
3:53 AM 75.9 °F 73.0 °F 91% 29.94 in 10.0 mi South 10.4 mph - N/A   Clear
4:17 AM 75.2 °F 73.4 °F 94% 29.94 in 10.0 mi South 11.5 mph - N/A   Mostly Cloudy
4:40 AM 75.2 °F 73.4 °F 94% 29.95 in 10.0 mi South 13.8 mph - N/A   Scattered Clouds
4:53 AM 75.9 °F 72.0 °F 87% 29.96 in 10.0 mi South 12.7 mph - N/A   Partly Cloudy
5:53 AM 75.9 °F 72.0 °F 87% 29.98 in 10.0 mi South 12.7 mph - N/A   Mostly Cloudy
6:53 AM 75.2 °F 71.6 °F 89% 30.02 in 10.0 mi South 6.9 mph - N/A   Overcast
7:36 AM 75.2 °F 73.4 °F 94% 30.02 in 10.0 mi SSW 5.8 mph - N/A   Partly Cloudy
7:53 AM 75.9 °F 73.0 °F 91% 30.03 in 9.0 mi SSW 6.9 mph - N/A   Clear
8:53 AM 75.9 °F 73.0 °F 91% 30.04 in 8.0 mi South 5.8 mph - N/A   Clear
9:53 AM 77.0 °F 73.0 °F 88% 30.06 in 8.0 mi SSW 6.9 mph - N/A   Scattered Clouds
10:11 AM 77.0 °F 73.4 °F 89% 30.07 in 8.0 mi SW 5.8 mph - N/A   Mostly Cloudy
10:32 AM 77.0 °F 73.4 °F 89% 30.07 in 10.0 mi WSW 8.1 mph - N/A   Scattered Clouds
10:53 AM 78.1 °F 73.0 °F 84% 30.06 in 10.0 mi WSW 10.4 mph - N/A   Clear
11:53 AM 78.1 °F 73.0 °F 84% 30.04 in 10.0 mi SW 9.2 mph - N/A   Clear
12:53 PM 78.1 °F 72.0 °F 81% 30.03 in 10.0 mi WSW 11.5 mph - N/A   Clear
1:53 PM 78.1 °F 72.0 °F 81% 30.01 in 10.0 mi WSW 9.2 mph - N/A   Clear
2:53 PM 78.1 °F 73.0 °F 84% 30.00 in 10.0 mi SW 8.1 mph - N/A   Clear
3:53 PM 77.0 °F 72.0 °F 84% 29.99 in 10.0 mi WSW 6.9 mph - N/A   Clear
4:53 PM 77.0 °F 72.0 °F 84% 30.01 in 10.0 mi WSW 8.1 mph - N/A   Clear
5:53 PM 75.2 °F 71.6 °F 89% 30.02 in 10.0 mi WSW 9.2 mph - N/A   Clear
6:53 PM 75.9 °F 73.0 °F 91% 30.03 in 10.0 mi WSW 5.8 mph - N/A   Partly Cloudy
7:32 PM 75.2 °F 71.6 °F 89% 30.05 in 10.0 mi NNW 9.2 mph - 0.00 in Rain Light Rain
7:53 PM 75.0 °F 72.0 °F 90% 30.07 in 10.0 mi NNW 9.2 mph - 0.00 in   Overcast
8:08 PM 73.4 °F 69.8 °F 88% 30.07 in 10.0 mi NNW 15.0 mph 23.0 mph N/A   Overcast
8:33 PM 73.4 °F 69.8 °F 88% 30.09 in 8.0 mi NNW 15.0 mph 24.2 mph 0.00 in Rain Light Rain
8:53 PM 72.0 °F 69.1 °F 91% 30.10 in 10.0 mi North 15.0 mph 24.2 mph 0.01 in Rain Light Rain
9:53 PM 72.0 °F 66.9 °F 84% 30.12 in 10.0 mi North 15.0 mph - 0.00 in   Mostly Cloudy
10:04 PM 71.6 °F 66.2 °F 83% 30.12 in 10.0 mi NNW 18.4 mph 25.3 mph N/A   Mostly Cloudy
10:15 PM 71.6 °F 66.2 °F 83% 30.12 in 10.0 mi North 17.3 mph 23.0 mph N/A   Mostly Cloudy
10:53 PM 71.1 °F 64.9 °F 81% 30.13 in 10.0 mi NNW 15.0 mph 25.3 mph N/A   Mostly Cloudy
11:53 PM 70.0 °F 62.1 °F 76% 30.14 in 10.0 mi North 15.0 mph 24.2 mph N/A   Mostly Cloudy